Regional Weather Roundup
Issued by NWS

Home | Current Version | Previous Version | Graphics & Text | Print | Product List | Glossary On
Versions: 1 2 3 4 5 6 7 8 9 10 11 12 13 14 15 16 17 18 19 20 21 22 23 24 25 26 27 28 29 30 31 32 33 34 35 36 37 38 39 40 41 42 43 44 45 46 47 48 49 50
000
ASUS43 KDMX 010408
RWRIA

WEATHER ROUNDUP FOR IOWA
NATIONAL WEATHER SERVICE DES MOINES IA
1100 PM CDT WED AUG 31 2016

NOTE: "FAIR" INDICATES FEW OR NO CLOUDS BELOW 12,000 FEET WITH NO
SIGNIFICANT WEATHER AND/OR OBSTRUCTIONS TO VISIBILITY.

* - THESE STATIONS ARE NOT NWS STATIONS...THUS NOT UNDER NWS
QUALITY CONTROL.  THEY ALSO DO NOT REPORT WEATHER SUCH
AS PRECIPITATION OR FOG.

IAZ001>003-012>014-020>022-031>034-043>046-010500-
   NORTHWEST IOWA

CITY           SKY/WX    TMP DP  RH WIND       PRES   REMARKS
CARROLL *      CLEAR     59  57  94 CALM      30.19S
CHEROKEE *     PTCLDY    61  61 100 CALM      30.21R
DENISON *      CLEAR     61  59  94 CALM      30.18R
LE MARS *      CLEAR     63  61  94 CALM      30.22R
ORANGE CITY *  CLEAR     66  61  82 E3        30.22S
SHELDON *      CLEAR     57  57 100 CALM      30.21R
SIOUX CITY     CLEAR     64  61  90 CALM      30.20R
SPENCER        CLEAR     58  56  93 CALM      30.22R
STORM LAKE *   CLEAR     63  59  88 NE6       30.22R
$$

IAZ055>058-069>071-079>083-090>094-010500-
   SOUTHWEST IOWA

CITY           SKY/WX    TMP DP  RH WIND       PRES   REMARKS
ATLANTIC *     CLEAR     61  61 100 N6        30.18S
AUDUBON *      CLEAR     61  57  88 CALM      30.20S
CLARINDA *       N/A     63  63 100 MISG        N/A
COUNCIL BLFS * CLEAR     64  61  88 NE6       30.19R
CRESTON *      CLEAR     64  61  88 NE6       30.19R
HARLAN  *      CLEAR     61  61 100 CALM      30.22S
LAMONI         CLEAR     63  60  90 N6        30.16R
RED OAK *      CLEAR     63  61  94 N6        30.18R
SHENANDOAH *   CLEAR     64  63  94 NE3       30.17S
$$

IAZ047>049-059>061-072>074-084-010500-
   CENTRAL IOWA

CITY           SKY/WX    TMP DP  RH WIND       PRES   REMARKS
AMES           CLEAR     61  60  97 N5        30.18R
ANKENY *         N/A    N/A N/A N/A MISG        N/A
BOONE *          N/A     63  57  82 CALM      30.18R
CHARITON *       N/A     63  59  88 N5        30.16R
DES MOINES     CLEAR     70  57  63 N5        30.16R
GRINNELL*      CLEAR     61  56  85 N5        30.17R
KNOXVILLE *    CLEAR     66  57  72 NE6       30.14S
MARSHALLTOWN   CLEAR     62  58  86 N8        30.17R
NEWTON *       CLEAR     63  59  88 N7        30.16R
PELLA *        CLEAR     61  58  91 N3        30.16S
PERRY *          N/A     63  61  95 N3        30.18R
$$

IAZ004>006-015-016-023>025-035-036-010500-
   NORTH CENTRAL IOWA

CITY           SKY/WX    TMP DP  RH WIND       PRES   REMARKS
ALGONA *       CLEAR     63  59  88 CALM      30.21S
ESTHERVILLE    CLEAR     57  57 100 CALM      30.22R
FORT DODGE *   CLEAR     64  57  77 N5        30.21R
MASON CITY     CLEAR     58  55  90 NW3       30.22R
FOREST CITY *    N/A     57  57 100 CALM      30.21R
WEBSTER CITY * CLEAR     59  59 100 N3        30.18R
IOWA FALLS *     N/A     62  56  81 NE7       30.20R
$$

IAZ007>011-017>019-026>030-037>042-050>054-066-010500-
   NORTHEAST IOWA

CITY           SKY/WX    TMP DP  RH WIND       PRES   REMARKS
CEDAR RAPIDS   CLEAR     63  57  81 N5        30.14S
CHARLES CITY * CLEAR     57  57 100 N5        30.20R
CLINTON *      CLEAR     61  58  90 N7        30.14R
DECORAH *      CLEAR     61  59  94 NW3       30.18R
DUBUQUE        CLEAR     60  57  89 CALM      30.16R
MONTICELLO *   CLEAR     59  59 100 CALM      30.15R
WATERLOO       CLEAR     58  54  86 NW3       30.17R
$$

IAZ064-065-067-068-078-010500-
   EAST CENTRAL IOWA

CITY           SKY/WX    TMP DP  RH WIND       PRES   REMARKS
DAVENPORT      CLEAR     60  58  92 CALM      30.14R
IOWA CITY      CLEAR     66  59  78 N5        30.15R
MT. PLEASANT * CLEAR     64  60  88 N6        30.14R
MUSCATINE *    CLEAR     64  57  77 NE6       30.13S
QUAD CITIES    CLEAR     62  58  86 CALM      30.12R
$$

IAZ062-063-075>077-085>089-095>099-010500-
   SOUTHEAST IOWA

CITY           SKY/WX    TMP DP  RH WIND       PRES   REMARKS
BURLINGTON     CLEAR     65  60  84 N8        30.12R
FAIRFIELD *    PTCLDY    61  59  94 N6        30.14R
FORT MADISON * CLEAR     63  61  94 N3        30.13R
KEOKUK *       CLEAR     66  63  88 N5        30.11R
OSKALOOSA *      N/A     60  57  91 N7        30.15S
OTTUMWA        CLEAR     63  57  81 N7        30.14R
WASHINGTON *   CLEAR     63  59  88 N6        30.15R
$$

ABBREVIATIONS USED IN REMARKS
   TC - TEMPERATURES IN CELSIUS
  WCI - WIND CHILL INDEX
   HX - HEAT INDEX
  VSB - VISIBILITY
$$





USA.gov is the U.S. government's official web portal to all federal, state and local government web resources and services.